KD9IXX-13 Weather Reports


Display with metric or nautical units.
time (UTC)temp
F
wind
direction
speed
MPH
gust
MPH
rain 1hr
in
rain 24hr
in
rain mn
in
humidity
%
barometer
mb
20260904194002 91 233 3.0 5.0 0.00 0.00 0.00 70 1015.3
20260904193502 91 272 3.0 5.0 0.00 0.00 0.00 68 1015.4
20260904193002 91 181 4.0 6.0 0.00 0.00 0.00 68 1015.6
20260904191001 91 181 3.0 5.0 0.00 0.00 0.00 68 1015.9
20260904185502 89 241 2.0 5.0 0.00 0.00 0.00 73 1015.8
20260904185002 89 11 2.0 6.0 0.00 0.00 0.00 73 1015.9
20260904184502 90 177 1.0 4.0 0.00 0.00 0.00 70 1016.1
20260904183002 88 306 1.0 6.0 0.00 0.00 0.00 75 1016.5
20260904181002 87 61 3.0 6.0 0.00 0.00 0.00 76 1016.8
20260904175001 86 135 3.0 5.0 0.00 0.00 0.00 79 1017.4
20260904174002 86 44 2.0 5.0 0.00 0.00 0.00 79 1017.6
20260904170502 87 17 2.0 7.0 0.00 0.00 0.00 77 1017.6
20260904165502 86 315 3.0 9.0 0.00 0.00 0.00 79 1017.7
20260904162502 87 91 5.0 7.0 0.00 0.00 0.00 75 1017.3
20260904162002 89 191 3.0 5.0 0.00 0.00 0.00 74 1017.4
20260904161002 88 7 3.0 4.0 0.00 0.00 0.00 71 1017.1
20260904160502 89 299 3.0 4.0 0.00 0.00 0.00 69 1017.1
20260904160002 89 310 1.0 3.0 0.00 0.00 0.00 71 1017.1
20260904155002 89 297 1.0 2.0 0.00 0.00 0.00 70 1017.1
20260904154002 89 222 1.0 5.0 0.00 0.00 0.00 73 1016.7
20260904153501 88 287 2.0 3.0 0.00 0.00 0.00 73 1016.7
20260904153002 88 284 2.0 6.0 0.00 0.00 0.00 73 1016.8
20260904150004 86 277 3.0 5.0 0.00 0.00 0.00 76 1016.6
20260904145502 87 332 4.0 5.0 0.00 0.00 0.00 74 1016.6
20260904143502 85 304 6.0 7.0 0.00 0.00 0.00 78 1016.4
20260904134002 82 283 0.0 0.0 0.00 0.00 0.00 82 1016.4
20260904133502 83 240 0.0 0.0 0.00 0.00 0.00 80 1016.2
20260904132502 83 303 0.0 0.0 0.00 0.00 0.00 82 1016.5
20260904131001 80 271 0.0 0.0 0.00 0.00 0.00 86 1016.0
20260904130502 80 288 0.0 0.0 0.00 0.00 0.00 87 1016.1
20260904125502 78 283 0.0 0.0 0.00 0.00 0.00 89 1015.8
20260904122502 75 274 0.0 0.0 0.00 0.00 0.00 94 1015.5
20260904122001 75 276 0.0 0.0 0.00 0.00 0.00 94 1015.1
20260904121002 74 277 0.0 0.0 0.00 0.00 0.00 95 1015.3
20260904120502 74 276 0.0 0.0 0.00 0.00 0.00 96 1015.1
20260904115002 74 278 0.0 0.0 0.00 0.00 0.00 95 1015.0
20260904114002 74 246 0.0 0.0 0.00 0.00 0.00 94 1014.8
20260904113501 74 279 0.0 0.0 0.00 0.00 0.00 95 1014.8
20260904113002 74 277 0.0 0.0 0.00 0.00 0.00 95 1014.6
20260904111501 74 207 1.0 2.0 0.00 0.00 0.00 95 1014.4
20260904111004 74 257 1.0 3.0 0.00 0.00 0.00 95 1014.6
20260904110002 74 283 0.0 2.0 0.00 0.00 0.00 95 1014.7
20260904104002 75 264 1.0 6.0 0.00 0.00 0.00 95 1014.5
20260904103002 74 271 0.0 0.0 0.00 0.00 0.00 96 1014.6
20260904102501 75 243 1.0 3.0 0.00 0.00 0.00 96 1014.6
20260904094502 75 259 1.0 3.0 0.00 0.00 0.00 96 1015.1
20260904093501 75 231 0.0 2.0 0.00 0.00 0.00 95 1015.1
20260904092502 76 263 0.0 0.0 0.00 0.00 0.00 94 1015.3
20260904091002 76 275 0.0 0.0 0.00 0.00 0.00 94 1015.2
20260904090501 76 274 0.0 0.0 0.00 0.00 0.00 93 1015.3
20260904090002 76 277 0.0 0.0 0.00 0.00 0.00 93 1015.4
20260904085002 76 280 0.0 0.0 0.00 0.00 0.00 93 1015.5
20260904083505 77 280 0.0 0.0 0.00 0.00 0.00 92 1015.3
20260904083001 77 269 0.0 0.0 0.00 0.00 0.00 92 1015.2
20260904081501 77 278 0.0 0.0 0.00 0.00 0.00 93 1014.7
20260904081002 76 277 0.0 3.0 0.00 0.00 0.00 94 1014.5
20260904080002 77 258 0.0 4.0 0.00 0.00 0.00 94 1014.6
20260904075002 77 260 0.0 5.0 0.00 0.00 0.00 95 1014.8
20260904074501 76 175 3.0 5.0 0.00 0.00 0.00 95 1014.5
20260904074002 76 212 3.0 4.0 0.00 0.00 0.00 96 1014.6
20260904070002 77 191 0.0 0.0 0.00 0.00 0.00 96 1014.9
20260904065502 77 247 0.0 3.0 0.00 0.00 0.00 96 1015.1
20260904063502 78 225 0.0 2.0 0.00 0.00 0.00 95 1015.4
20260904061002 78 269 0.0 0.0 0.00 0.00 0.00 95 1015.5
20260904060502 78 215 0.0 0.0 0.00 0.00 0.00 95 1015.4
20260904060001 78 206 1.0 3.0 0.00 0.00 0.00 94 1015.7
20260904055502 78 263 0.0 0.0 0.00 0.00 0.00 94 1015.6
20260904054502 78 272 0.0 0.0 0.00 0.00 0.00 94 1015.7
20260904054002 78 270 0.0 0.0 0.00 0.00 0.00 94 1015.7
20260904053002 78 244 0.0 0.0 0.00 0.00 0.00 94 1015.7
20260904052501 78 271 0.0 0.0 0.00 0.00 0.00 94 1015.6
20260904051002 79 268 0.0 0.0 0.00 0.00 0.00 93 1015.5
20260904050502 79 243 0.0 0.0 0.00 0.00 0.00 92 1015.5
20260904050002 79 218 0.0 0.0 0.00 0.00 0.00 92 1015.6
20260904045002 80 210 0.0 0.0 0.00 0.00 0.00 91 1015.5
20260904044001 80 222 0.0 0.0 0.00 0.00 0.00 90 1015.4
20260904041501 80 244 0.0 0.0 0.00 0.00 0.00 90 1015.7
20260904040002 80 277 0.0 0.0 0.00 0.00 0.00 89 1015.7
20260904035501 80 276 0.0 0.0 0.00 0.00 0.00 89 1015.5
20260904035002 80 277 0.0 0.0 0.00 0.00 0.00 89 1015.6
20260904034002 81 269 0.0 2.0 0.00 0.00 0.00 88 1015.6
20260904033501 81 257 0.0 0.0 0.00 0.00 0.00 88 1015.7
20260904033002 81 271 0.0 0.0 0.00 0.00 0.00 88 1015.4
20260904032502 81 270 0.0 0.0 0.00 0.00 0.00 87 1015.7
20260904032001 81 277 0.0 0.0 0.00 0.00 0.00 87 1015.7
20260904031002 81 271 0.0 0.0 0.00 0.00 0.00 86 1015.9
20260904030501 82 270 0.0 0.0 0.00 0.00 0.00 86 1015.8
20260904030002 82 243 0.0 2.0 0.00 0.00 0.00 86 1015.9
20260904025001 82 272 0.0 2.0 0.00 0.00 0.00 87 1015.6
20260904024002 82 280 0.0 0.0 0.00 0.00 0.00 88 1015.7
20260904022502 81 275 0.0 0.0 0.00 0.00 0.00 90 1015.4
20260904022002 82 286 0.0 0.0 0.00 0.00 0.00 90 1015.5
20260904021501 82 284 0.0 0.0 0.00 0.00 0.00 90 1015.4
20260904020002 82 288 0.0 0.0 0.00 0.00 0.00 89 1015.3
20260904015002 83 251 0.0 0.0 0.00 0.00 0.00 88 1015.2
20260904013002 83 277 0.0 2.0 0.00 0.00 0.00 88 1014.7
20260904012002 83 338 2.0 4.0 0.00 0.00 0.00 88 1014.8
20260904011501 83 267 2.0 7.0 0.00 0.00 0.00 88 1014.7
20260904010502 83 313 0.0 2.0 0.00 0.00 0.00 89 1014.4
20260904010003 83 269 0.0 0.0 0.00 0.00 0.00 90 1014.2
20260904003502 84 290 1.0 2.0 0.00 0.00 0.00 89 1014.2
20260904002502 85 297 0.0 0.0 0.00 0.00 0.00 87 1014.4
20260904001502 86 276 0.0 0.0 0.00 0.00 0.00 85 1014.2
20260903233002 88 276 0.0 0.0 0.00 0.00 0.00 80 1014.5
20260903232503 89 273 0.0 2.0 0.00 0.00 0.00 79 1014.4
20260903232001 89 246 0.0 4.0 0.00 0.00 0.00 78 1014.6
20260903231502 90 240 0.0 0.0 0.00 0.00 0.00 78 1014.3
20260903231002 89 240 0.0 0.0 0.00 0.00 0.00 77 1014.5
20260903230502 90 270 1.0 4.0 0.00 0.00 0.00 78 1014.6
20260903230002 89 277 0.0 0.0 0.00 0.00 0.00 79 1014.7
20260903224502 88 259 0.0 2.0 0.00 0.00 0.00 79 1014.9
20260903224001 89 278 1.0 4.0 0.00 0.00 0.00 78 1014.8
20260903223002 89 274 0.0 2.0 0.00 0.00 0.00 76 1014.9
20260903221002 89 225 0.0 0.0 0.00 0.00 0.00 76 1014.8
20260903220002 90 279 0.0 4.0 0.00 0.00 0.00 73 1014.8
20260903214502 91 284 0.0 3.0 0.00 0.00 0.00 71 1014.6
20260903212502 92 220 0.0 2.0 0.00 0.00 0.00 71 1014.8
20260903210002 92 281 2.0 5.0 0.00 0.00 0.00 70 1014.7
20260903204502 92 164 3.0 4.0 0.00 0.00 0.00 69 1015.0
20260903204002 92 259 2.0 5.0 0.00 0.00 0.00 70 1015.1
20260903202502 91 310 1.0 6.0 0.00 0.00 0.00 68 1015.0
20260903202002 91 34 3.0 4.0 0.00 0.00 0.00 69 1015.1
20260903201501 92 286 3.0 6.0 0.00 0.00 0.00 68 1015.2